15P/Finlay (2014)

Japanese version
Home page
Updated on June 13, 2015

---------------------------------------------------------------------

* Profile

* Pictures

* Orbital Elements

Epoch 2014 Dec. 9.0 TT = JDT 2457000.5
T 2014 Dec. 27.05516 TT                                 MPCW
q   0.9759002            (2000.0)            P               Q
n   0.15132365     Peri.  347.55275     +0.99936923     -0.02159100
a   3.4876390      Node    13.77815     +0.03281060     +0.86513117
e   0.7201831      Incl.    6.79895     -0.01358682     +0.50108072
P   6.51
From 423 observations 2002 Jan. 27-2015 Jan. 1, mean residual 0".8.
     Nongravitational parameters A1 = +0.47, A2 = +0.0060.

* Finding Charts

* Magnitudes Graph

        m1 =  9.5 + 5 log d + 30.0 log r(t - 20)  [   , 20]  (             - 2015 Jan. 16)
        m1 =  9.4 + 5 log d + 25.0 log r(t - 20)  [ 20,145]  (2015 Jan. 16 - 2015 May  21)
        m1 = 13.2 + 5 log d + 10.0 log r          [145,   ]  (2015 May  21 -             )

---------------------------------------------------------------------

The orbital elements are published on M.P.E.C. 2015-A10.
The charts are made with StellaNavigator Ver.8 (AstroArts).
The magnitudes graphs are made with Comet for Windows.

---------------------------------------------------------------------

Copyright(C) Seiichi Yoshida (comet@aerith.net). All rights reserved.